Tracking 20376 objects as of 22-Feb-2020
HD Live streaming from Space Station
objects crossing your sky now
Track the group of recently launched Starlink satellites

STARLINK-1167

Track STARLINK-1167 now!
10-day predictions
STARLINK-1167 is classified as:


NORAD ID: 45071
Int'l Code: 2020-006AD
Perigee: 348.7 km
Apogee: 351.4 km
Inclination: 53.0 °
Period: 91.4 minutes
Semi major axis: 6721 km
RCS: Unknown
Launch date: January 29, 2020
Source: United States (US)
Launch site: AIR FORCE EASTERN TEST RANGE (AFETR)
aabbcc
Your satellite tracking list
Your tracking list is empty




NASA's NSSDC Master Catalog

Two Line Element Set (TLE):
1 45071U 20006AD  20052.91667824 +.00044385 +00000-0 +28757-3 0  9993
2 45071 052.9972 118.0407 0002041 222.1846 284.9832 15.75600560004067
Source of the keplerian elements: AFSPC